Other Public Products
Issued by NWS Grand Forks, ND

Home | Current Version | Previous Version | Text Only | Print | Product List | Glossary On
Versions: 1 2 3 4 5 6 7 8 9 10 11 12 13 14 15 16 17 18 19 20 21 22 23 24 25 26 27 28 29 30 31 32 33 34 35 36 37 38 39 40 41 42 43 44 45 46 47 48 49 50
000
FPUS83 KFGF 270131
OPUFGF
PRAIRIE TO PINES WEATHER ROUNDUP
NATIONAL WEATHER SERVICE EASTERN NORTH DAKOTA/GRAND FORKS ND
700 PM CST WED NOV 26 2014

 **SATELLITE DATA USED TO AUGMENT SKY COVER AT AUTOMATED STATIONS**
 *****  WEATHER ACROSS EASTERN NORTH DAKOTA  *****

CITY           SKY/WX    TMP DP  RH WIND       PRES   REMARKS
GRAND FORKS    CLEAR     -9 -14  78 N6        30.53S WCI -22
GRAND FORKS AF PTCLDY   -10 -14  80 N5        30.53R WCI -21
GRAND CITY NWS   N/A     -6 N/A N/A VRB3        N/A
BUXTON           N/A     -4  -8  84 N5          N/A  WCI -15
DEVILS LAKE    PTCLDY    -2 -15  55 CALM      30.44S
FARGO          PTCLDY    -3  -9  75 N8        30.52R WCI -18
WAHPETON ARPT  CLEAR      0  -6  78 N9        30.50R WCI -16
$$

 *****  WEATHER ACROSS CENTRAL AND WESTERN NORTH DAKOTA  *****

CITY           SKY/WX    TMP DP  RH WIND       PRES   REMARKS
JAMESTOWN      MOCLDY   -13 -17  82 NW7       30.46R WCI -29
BISMARCK       PTCLDY    -6 -10  83 E5        30.45S WCI -17
MINOT          CLOUDY   -11 -14  86 CALM      30.44S
MINOT AFB      CLOUDY   -20 -25  76 NW2       30.44F
GARRISON         N/A     -4  -8  83 NE3       30.42S
WILLISTON      CLOUDY     8   2  76 N5        30.38F WCI   0
DICKINSON      PTCLDY    11   8  88 SE7       30.30S WCI   0
HETTINGER      MOCLDY    12   9  87 E3        30.32S
$$

 *****  OTHER OBSERVATIONS NORTHEAST NORTH DAKOTA  *****

CITY           SKY/WX    TMP DP  RH WIND       PRES   REMARKS
WALHALLA         N/A     -9 -11  92 CALM      30.54R
LANGDON        FAIR      -9 -15  77 CALM      30.44S
CAVALIER       FAIR     -11 -17  77 W3        30.54S
GRAFTON        FAIR      -4  -9  77 NW7       30.54S WCI -18
CANDO          FAIR      -9 -13  84 NW3       30.47S
FORT TOTTEN      N/A     -3 -11  68 N2        29.95S
ROLLA          FAIR      -8 -13  77 NW6       30.42F WCI -21
RUGBY          FAIR      -8 -11  84 W5        30.45F WCI -19
 ***** THE ABOVE OBSERVATIONS ARE NON NWS ARE NOT QUALITY
        CONTROLLED AND MAY MIS-REPORT RAIN FOR SNOW...
$$

 *****  OTHER OBSERVATIONS SOUTHEAST NORTH DAKOTA *****

CITY           SKY/WX    TMP DP  RH WIND       PRES   REMARKS
COOPERSTOWN    NOT AVBL
VALLEY CITY    FAIR      -4 -11  71 NW7       30.47R WCI -18
OAKES            N/A     -4  -9  77 NW5       30.48R WCI -15
GWINNER        CLEAR      0  -9  65 W5        30.49R WCI -10
BUFFALO        NOT AVBL
WYNDMERE         N/A     -4  -9  77 NW3         N/A
 ***** THE ABOVE OBSERVATIONS ARE NON NWS ARE NOT QUALITY
       CONTROLLED AND MAY MIS-REPORT RAIN FOR SNOW...
$$

  *****  WEATHER ACROSS NORTHERN MINNESOTA  *****

CITY           SKY/WX    TMP DP  RH WIND       PRES   REMARKS
FLAG ISLAND    CLEAR     -6 -11  77 NW8       30.44S WCI -21
WARROAD        CLEAR     -6 -11  77 NW7       30.46R WCI -20
ROSEAU         PTCLDY    -6 -13  71 NW7       30.48R WCI -20
HALLOCK        PTCLDY    -8 -13  77 NW3       30.53S
THF RVR FALLS  CLEAR     -6  -9  84 NW10      30.47R WCI -23
HALSTAD          N/A     -6 -11  80 N9          N/A  WCI -23
FOSSTON        CLEAR     -9 -13  84 NW6       30.45R WCI -23
BAUDETTE       PTCLDY    -7 -12  79 CALM      30.42R
WASKISH        CLEAR     -4  -8  84 CALM      30.43R
CROOKSTON      CLEAR     -6  -9  84 N9        30.53R WCI -22
$$
  *****  WEATHER ACROSS CENTRAL AND WEST MINNESOTA  *****

CITY           SKY/WX    TMP DP  RH WIND       PRES   REMARKS
BEMIDJI        CLEAR     -7 -12  78 NW6       30.40R WCI -20
PARK RAPIDS    CLEAR     -2  -9  72 NW9       30.38R WCI -18
WADENA         CLEAR      0  -6  78 NW10      30.39R WCI -17
DETROIT LAKES  CLEAR     -2  -6  84 NW8       30.44R WCI -17
MOORHEAD       CLEAR     -6  -8  92 N5        30.51S WCI -17
FERGUS FALLS   CLEAR     -2  -8  78 N14G20    30.49R WCI -21
ELBOW LAKE     FAIR       0  -4  82 NW16      30.43R WCI -21
MORRIS MN      PTCLDY     1  -6  71 NW17G24   30.42R WCI -19
STAPLES        PTCLDY     3  -8  60 NW10      30.37S WCI -12
WHEATON        PTCLDY     0  -6  78 NW10      30.51R WCI -17
$$
  *****  WEATHER ELSEWHERE ACROSS MINNESOTA  *****

CITY           SKY/WX    TMP DP  RH WIND       PRES   REMARKS
DULUTH         PTCLDY     8  -2  63 N12       30.27R WCI  -7
INTRNTL FALLS  CLEAR     -4  -8  83 NW7       30.39R WCI -18
ELY            CLEAR      0  -6  78 NW5       30.31R WCI -10
CLOQUET        CLEAR      9  -2  61 N8G17     30.30R WCI  -4
BRAINERD       PTCLDY     7  -5  57 N12       30.36R WCI  -8
HIBBING        CLEAR      4  -6  63 N12       30.33R WCI -12
ALEXANDRIA     PTCLDY     4  -7  60 N13       30.37R WCI -13
SAINT CLOUD    CLOUDY    18   5  57 N14       30.33R WCI   4
MINNEAPOLIS    CLOUDY    22  14  71 NW13G18   30.30R WCI  10
$$

  *****  WEATHER ACROSS SOUTH DAKOTA  *****

CITY           SKY/WX    TMP DP  RH WIND       PRES   REMARKS
SIOUX FALLS    CLOUDY    14   6  70 N16       30.38R WCI  -2
BROOKINGS      NOT AVBL
WATERTOWN      CLOUDY     6  -4  63 N14       30.39R WCI -11
HURON          CLOUDY     9   1  70 N10       30.46R WCI  -5
SISSETON         N/A     -1  -6  79 N12       30.46R WCI -18
ABERDEEN       PTCLDY     3  -4  72 N8        30.49R WCI -10
MITCHELL       CLOUDY    12   5  73 N14       30.45R WCI  -3
PIERRE         FLURRIES  16   9  74 E9        30.39F WCI   4
MOBRIDGE       PTCLDY     9   4  80 E7        30.39R WCI  -2
RAPID CITY     CLOUDY    28  25  88 E3        30.27R
$$

  *****  SOME WEATHER IN NEARBY STATES *****

CITY           SKY/WX    TMP DP  RH WIND       PRES   REMARKS
GLASGOW MT     CLOUDY    18  12  77 E15       30.27F WCI   4
GREAT FALLS MT FOG       27  27 100 E7        30.06F VSB 1   WCI  19
CHEYENNE WY    CLOUDY    29  22  75 S10       30.19R WCI  20
SCOTTSBLUFF NE MOCLDY    27  25  92 E7        30.27S WCI  19
OMAHA NE       CLOUDY    25  19  78 N24G37    30.36R WCI   9
DES MOINES IA  LGT SNOW  30  26  85 N14       30.24R FOG     WCI  19
DAVENPORT IA   CLOUDY    26  20  77 NE12      30.19R WCI  16
CHICAGO IL     CLOUDY    29  22  75 CALM      30.12S
EAU CLAIRE WI  MOCLDY    23  16  74 NW7       30.23R WCI  15
LA CROSSE WI   LGT SNOW  25  22  88 N7        30.24R FOG     WCI  17
$$

  *****  SOME NATIONAL WEATHER *****

CITY           SKY/WX    TMP DP  RH WIND       PRES   REMARKS
LA GUARDIA NY  LGT SNOW  36  33  89 NW24G31   29.79R FOG
RALEIGH NC     PTCLDY    43  37  81 CALM      30.06S
ATLANTA GA     PTCLDY    47  25  42 CALM      30.07F
NEW ORLEANS LA CLEAR     59  42  53 SW9       30.21R
OKLAHOMA CITY  PTCLDY    47  21  35 N16G26    30.31R
ALBUQUERQUE NM PTCLDY    56  23  27 N8        30.34R
SALT LAKE CITY PTCLDY    50  30  46 SE6       30.35S
LOS ANGELES CA CLEAR     68  44  42 W8        30.13S
BOISE ID       MOCLDY    50  39  66 SE6       30.22F
SEATTLE WA     CLOUDY    58  52  80 SE7       29.98F
$$

*** WEATHER ACROSS MANITOBA...SASKATCHEWAN AND ONTARIO ***
                ***ONTARIO***

CITY           SKY/WX    TMP DP  RH WIND       PRES   REMARKS
GERALDTON      PTCLDY    -8 -15  71 N5        30.30S WCI -19
THUNDER BAY    PTCLDY     5  -2  72 N6        30.35R WCI  -6
SIOUX LOOKOUT  CLEAR     -8 -13  77 N6        30.37R WCI -21
TORONTO        CLOUDY    34  25  69 NE7       30.08F
BIG TROUT LK   CLEAR    -17 -20  83 W7        30.36F WCI -33
PICKLE LAKE    CRYSTALS -13 -20  70 W5        30.34S WCI -25
DRYDEN         CLEAR     -6 -13  71 NW5       30.37S WCI -17
KENORA         CLEAR     -8 -13  77 NW6       30.41R WCI -21
$$
                *** MANITOBA***

CITY           SKY/WX    TMP DP  RH WIND       PRES   REMARKS
BRANDON        CLEAR    -11 -17  77 NW8       30.47F WCI -28
DAUPHIN        CLEAR    -13 -18  77 SW5       30.51R WCI -25
ISLAND LAKE    CLEAR    -13 -20  70 SW6       30.44S WCI -27
PILOT MOUND      N/A     -9 -15  77 SW3         N/A
THE PAS        CLEAR    -17 -20  83 SE2       30.45F
THOMPSON       CLEAR    -17 -22  76 W6        30.39F WCI -31
WINNIPEG       CLEAR    -13 -20  70 NW7       30.54S WCI -29
LYNN LAKE      CLEAR    -13 -17  84 SW8       30.26F WCI -30
CHURCHILL      PTCLDY    -8 -13  77 SW13      30.20F WCI -28
GILLAM         CLEAR    -17 -22  76 SW9       30.37S WCI -36
$$
                ***SASKATCHEWAN***

CITY           SKY/WX    TMP DP  RH WIND       PRES   REMARKS
ESTEVAN        PTCLDY   -11 -15  84 E6        30.40F WCI -25
KINDERSLEY     MOCLDY     9   7  92 E5        30.21F WCI   0
LLOYDMINSTER   CLOUDY    12   9  85 S9        30.19S WCI   0
PRINCE ALBERT  PTCLDY    -9 -13  84 SE3       30.37F
REGINA         PTCLDY    -4  -8  84 SE10      30.37F WCI -21
YORKTON        CLEAR    -13 -17  84 S2        30.42F


USA.gov is the U.S. government's official web portal to all federal, state and local government web resources and services.